Regional Weather Roundup
Issued by NWS

Home | Current Version | Previous Version | Graphics & Text | Print | Product List | Glossary On
Versions: 1 2 3 4 5 6 7 8 9 10 11 12 13 14 15 16 17 18 19 20 21 22 23 24 25 26 27 28 29 30 31 32 33 34 35 36 37 38 39 40 41 42 43 44 45 46 47 48 49 50
000
ASUS43 KMKX 232011
RWRWI

WISCONSIN REGIONAL WEATHER ROUNDUP
NATIONAL WEATHER SERVICE MILWAUKEE/SULLIVAN WI
300 PM CDT FRI JUN 23 2017

NOTE: "FAIR" INDICATES FEW OR NO CLOUDS BELOW 12,000 FEET WITH NO
SIGNIFICANT WEATHER AND/OR OBSTRUCTIONS TO VISIBILITY.

WIZ001-002-006>008-014>016-023>028-232100-
NORTHWEST WISCONSIN

CITY           SKY/WX    TMP DP  RH WIND       PRES   REMARKS
SUPERIOR ARPT  NOT AVBL
ASHLAND        PTSUNNY   68  49  50 W12G23    29.70S
HAYWARD        CLOUDY    66  48  52 VRB5G16   29.74S
SIREN          CLOUDY    67  49  52 NW13G18   29.78S
CUMBERLAND     CLOUDY    64  48  55 NW12G17   29.78R
RICE LAKE      CLOUDY    66  50  55 W14G20    29.79R
CHETEK         CLOUDY    68  51  55 NW9G20    29.76S
LADYSMITH      PTSUNNY   69  51  52 W12G21    29.76R
EAU CLAIRE     CLOUDY    69  51  52 NW15      29.75S
MENOMONIE      CLOUDY    69  50  50 W20G25    29.78R
NEW RICHMOND   CLOUDY    69  48  46 NW18      29.79S
OSCEOLA        CLOUDY    71  50  47 NW10G24   29.81S
$$

WIZ003>005-009-010-017-018-232100-
NORTH CENTRAL WISCONSIN

CITY           SKY/WX    TMP DP  RH WIND       PRES   REMARKS
MANITOWISH WTR CLOUDY    65  49  54 W14G22    29.70R
ARBOR VITAE    PTSUNNY   69  50  50 W16       29.69F
WOODRUFF       PTSUNNY   69  50  50 W16       29.69F
RHINELANDER    CLOUDY    68  52  56 W10       29.70S
EAGLE RIVER    PTSUNNY   68  46  44 NW13G24   29.69R
LAND O LAKES   MOSUNNY   66  46  46 NW13G21   29.70R
PHILLIPS       CLOUDY    66  51  58 NW6       29.71S
TOMAHAWK       NOT AVBL
MEDFORD        CLOUDY    65  51  59 W14G20    29.73S
MERRILL        MOSUNNY   70  51  50 NW15G24   29.70F
$$

WIZ029-030-035-036-043>047-232100-
CENTRAL WISCONSIN

CITY           SKY/WX    TMP DP  RH WIND       PRES   REMARKS
WAUSAU         PTSUNNY   70  51  51 W18G25    29.69S
MOSINEE        PTSUNNY   68  52  56 W15G21    29.72S
MARSHFIELD     CLOUDY    67  51  56 W15G23    29.73R
STEVENS POINT  PTSUNNY   71  50  47 W12G24    29.71S
WAUPACA        MOSUNNY   78  48  34 W14G24    29.69R
WAUTOMA        MOSUNNY   77  52  41 W20G28    29.70R
WISC RAPIDS    LGT RAIN  74  53  48 NW16G23   29.73R
CAMP DOUGLAS   PTSUNNY   73  55  53 W16G25    29.73R
$$

WIZ011>013-019>022-031-037>040-048>050-232100-
NORTHEAST WISCONSIN

CITY           SKY/WX    TMP DP  RH WIND       PRES   REMARKS
ANTIGO         CLOUDY    68  51  55 W16G24    29.70R
SHAWANO        MOSUNNY   76  49  38 W15G24    29.65S
OCONTO         MOSUNNY   77  49  37 W14G24    29.62R
STURGEON BAY     N/A     77  51  40 W13G21      N/A
GREEN BAY      MOSUNNY   77  53  43 W18G26    29.65R
MANITOWOC      MOSUNNY   77  52  41 W18G25    29.65S
APPLETON       PTSUNNY   75  46  35 W18G26    29.66S
CLINTONVILLE   PTSUNNY   75  45  33 W17G25    29.66S
OSHKOSH        MOSUNNY   77  52  41 W14G24    29.65F
$$

WIZ032>034-041-042-053>061-232100-
SOUTHWEST WISCONSIN

CITY           SKY/WX    TMP DP  RH WIND       PRES   REMARKS
LA CROSSE      CLOUDY    73  53  49 NW14      29.77R
SPARTA         CLOUDY    71  53  53 NW13      29.77R
VIROQUA        PTSUNNY   71  55  58 W10G25    29.78S
BOSCOBEL       MOSUNNY   76  54  46 W17G24    29.76R
PRAIRIE DU CHI MOSUNNY   73  51  47 NW15G25   29.78R
PLATTEVILLE    SUNNY     77  54  45 W18G28    29.77R
$$

WIZ056-057-062-063-064-067-068-232100-
SOUTH CENTRAL WISCONSIN

CITY           SKY/WX    TMP DP  RH WIND       PRES   REMARKS
REEDSBURG      PTSUNNY   74  54  48 NW14G23   29.72S
BARABOO/DELLS  MOSUNNY   76  52  42 NW14G22   29.72R
LONE ROCK      MOSUNNY   77  53  43 NW20G28   29.73R
MINERAL POINT  MOSUNNY   77  52  41 W21G29    29.75R
MADISON        MOSUNNY   78  54  43 NW13G20   29.69F
MIDDLETON      MOSUNNY   78  44  29 W18G28    29.71S
WATERTOWN      PTSUNNY   78  54  43 W10G20    29.68F
MONROE         MOSUNNY   79  45  29 W21G28    29.73S
JANESVILLE     PTSUNNY   81  52  36 W12G17    29.70F HX  80
$$

WIZ051-052-058>065-066-070>072-232100-
SOUTHEAST WISCONSIN

CITY           SKY/WX    TMP DP  RH WIND       PRES   REMARKS
MILWAUKEE      MOSUNNY   82  46  28 NW17G24   29.68F HX  80
WAUKESHA       SUNNY     75  46  35 W13G22    29.70F
MILWAUKEE/TIMM MOSUNNY   79  41  25 W18       29.69S
RACINE         SUNNY     81  44  27 NW12      29.70F HX  80
KENOSHA        SUNNY     79  47  32 NW16G22   29.70F
FOND DU LAC    MOSUNNY   78  51  38 W16G28    29.66F
SHEBOYGAN      MOSUNNY   78  56  46 W21       29.66S
WEST BEND      PTSUNNY   75  46  35 W15G22    29.67F
JUNEAU         MOSUNNY   77  55  46 W12G17    29.69F
$$

LSZ147-162-232100-
LAKE SUPERIOR

STATION/POSITION TIME  TEMP    WIND        PRES    WAVE
                       AIR SEA DIR/SP/G            HT/PER
                 (UTC) (F)     (DEG/KT/KT) (MB)    (FT/S)
W MID LAKE BUOY  1950   48 39  250/ 14/ 16 1003.8F   2/ 4
DEVILS ISLAND    2000   58     260/ 15/ 16 1005.0R
SAXON HARBOR     1940   65     310/ 12/ 19 1005.4R
$$

LMZ867-665-643>646-232100-
LAKE MICHIGAN

STATION/POSITION TIME  TEMP    WIND        PRES    WAVE
                       AIR SEA DIR/SP/G            HT/PER
                 (UTC) (F)     (DEG/KT/KT) (MB)    (FT/S)
CHAMBERS ISLAND  1940   76     240/  8/ 15 1002.4S
S GREEN BAY BUOY 2000   73     270/ 16/ 19 1003.0
N MID LAKE BUOY  1950   60 57  190/  8/ 10 1002.8F   1
NORTHPORT PIER   1940   78     280/  6/ 13 1002.0S
KEWAUNEE LAKESHO 1948   77     290/ 11/ 17 1003.1S
SHEBOYGAN LAKESH 2000   76     280/ 19/ 22 1003.5F
PORT WASHINGTON  1930   81     280/  9/ 16 1005.4S
ATWATER BUOY     1939   72 60  270/ 10/ 12 1005.3F
MILWAUKEE LAKESH 1950   78     300/ 10/ 13   N/A
S MID LAKE BUOY  1950   65 63  250/  4/  6 1005.3F   0
KENOSHA   LAKESH 2000   79     300/ 13/ 18 1005.1
$$

TC  - TEMPERATURE IN CELSIUS
VSB - VISIBILITY IN STATUTE MILES
WCI - WIND CHILL INDEX
HX  - HEAT INDEX





USA.gov is the U.S. government's official web portal to all federal, state and local government web resources and services.